Regional Weather Roundup
Issued by NWS

Home | Current Version | Previous Version | Graphics & Text | Print | Product List | Glossary On
Versions: 1 2 3 4 5 6 7 8 9 10 11 12 13 14 15 16 17 18 19 20 21 22 23 24 25 26 27 28 29 30 31 32 33 34 35 36 37 38 39 40 41 42 43 44 45 46 47 48 49 50
000
ASUS45 KABQ 290601
RWRNM
NEW MEXICO REGIONAL WEATHER ROUNDUP
NATIONAL WEATHER SERVICE ALBUQUERQUE NM
1200 AM MDT SAT AUG 29 2015

NOTE: "FAIR" MEANS FEW OR NO CLOUDS BELOW 12,000 FEET AGL WITH NO
       SIGNIFICANT WEATHER OR OBSTRUCTIONS TO VISION.

      THIS PRODUCT IS RELEASED AS TWO VERSIONS.  ONE VERSION NEAR
      THE TOP OF THE HOUR CONTAINING PRELIMINARY DATA FROM ALBUQUERQUE
      AND OTHER STATIONS.  A FINAL VERSION WITH ADDITIONAL DATA IS
      ISSUED ABOUT 10 MINUTES AFTER THE HOUR.

NMZ501-503-504-510>518-290700-
NORTHWEST PLATEAU/NORTHCENTRAL MOUNTAINS

CITY           SKY/WX    TMP DP  RH WIND       PRES   REMARKS
FARMINGTON     CLEAR     66  38  35 CALM      30.18R
6HR MIN TEMP:  65; 6HR MAX TEMP:  90;

SANTA FE       PTCLDY    67  48  50 S12       30.32R
6HR MIN TEMP:  67; 6HR MAX TEMP:  81;

TAOS           PTCLDY    63  39  42 E5        30.39R

$$
NMZ402-403-502-505>509-290700-
WESTCENTRAL MOUNTAINS/SOUTHWEST MOUNTAINS

CITY           SKY/WX    TMP DP  RH WIND       PRES   REMARKS
GALLUP         CLEAR     56  47  71 CALM      30.29S
6HR MIN TEMP:  54; 6HR MAX TEMP:  83;

SILVER CITY      N/A     72  55  56 N8        30.24R

$$
NMZ407-409-411-412-290700-
SOUTHERN DESERTS

CITY           SKY/WX    TMP DP  RH WIND       PRES   REMARKS
DEMING         PTCLDY    75  57  53 E7        30.12S
6HR MIN TEMP:  75; 6HR MAX TEMP:  92;

HOLLOMAN AFB   CLEAR     73  59  60 S7        30.13R
ALAMOGORDO     PTCLDY    68  57  68 NE3       30.16S
T OR C         CLOUDY    74  54  49 N12G18    30.22R
6HR MIN TEMP:  73; 6HR MAX TEMP:  89; 6HR PCP: TRACE;


$$
NMZ519>523-290700-
CENTRAL VALLEYS/CENTRAL HIGHLANDS

CITY           SKY/WX    TMP DP  RH WIND       PRES   REMARKS
ALBUQUERQUE    MOCLDY    73  51  46 E23G29    30.26R
6HR MIN TEMP:  73; 6HR MAX TEMP:  84;

DOUBLE EAGLE   MOCLDY    69  51  52 SE16G22   30.31R
MORIARTY ARPT  FAIR      62  50  65 S3        30.35S
6HR MIN TEMP:  60; 6HR MAX TEMP:  72;

CLINES CORNERS PTCLDY    57  52  83 E9        30.37S
6HR MIN TEMP:  57; 6HR MAX TEMP:  66;

BELEN          FAIR      72  52  48 S6        30.25R
6HR MIN TEMP:  71; 6HR MAX TEMP:  90;

SOCORRO        NOT AVBL

$$
NMZ524>526-539-540-290700-
SOUTHCENTRAL MOUNTAINS

CITY           SKY/WX    TMP DP  RH WIND       PRES   REMARKS
RUIDOSO        MOCLDY    61  54  77 MISG      30.39R

$$
NMZ527>531-290700-
NORTHEAST HIGHLANDS/NORTHEAST PLAINS

CITY           SKY/WX    TMP DP  RH WIND       PRES   REMARKS
LAS VEGAS      PTCLDY    55  49  80 N5        30.39R
6HR MIN TEMP:  55; 6HR MAX TEMP:  70;

RATON          MOCLDY    60  50  69 NE5       30.34S
6HR MIN TEMP:  59; 6HR MAX TEMP:  79;

CLAYTON        PTCLDY    66  56  70 W6        30.24R
6HR MIN TEMP:  65; 6HR MAX TEMP:  74;


$$
NMZ532>537-290700-
EASTCENTRAL PLAINS

CITY           SKY/WX    TMP DP  RH WIND       PRES   REMARKS
TUCUMCARI      CLOUDY    69  59  70 W3        30.17R
6HR MIN TEMP:  69; 6HR MAX TEMP:  88;

CANNON AFB     MOCLDY    71  60  67 S12       30.19R
6HR MIN TEMP:  71; 6HR MAX TEMP:  87;

CLOVIS AIRPORT MOCLDY    68  61  77 S9        30.21R

$$
NMZ028-029-538-290700-
SOUTHEAST PLAINS

CITY           SKY/WX    TMP DP  RH WIND       PRES   REMARKS
ROSWELL        LGT RAIN  68  65  90 NE17G26   30.20R
6HR MIN TEMP:  68; 6HR MAX TEMP:  86; 6HR PCP: TRACE;

ARTESIA        DRIZZLE   72  66  83 NE14      30.19R
CARLSBAD       MOCLDY    76  61  59 E8        30.12S
6HR MIN TEMP:  76; 6HR MAX TEMP:  86; 6HR PCP: TRACE;

HOBBS          LGT RAIN  66  64  94 SW12      30.16R


$$


USA.gov is the U.S. government's official web portal to all federal, state and local government web resources and services.